{"data":{"norad_id":63792,"intl_designator":"2025-091T","name":"STARLINK-33916","alt_names":[],"object_type":"PAYLOAD","status":"ACTIVE","operator":null,"country":"US","launch_date":"2025-05-02","launch_site_code":"AFETR","launch_vehicle":null,"mission":null,"orbit_class":"UNKNOWN","rcs_meters":null,"size_class":null,"mass_kg":null,"dimensions":null,"purposes":["comms"],"wikipedia_slug":null,"has_3d_model":false,"image_url":null,"decayed_at":null,"tle_current":{"epoch":"2026-09-20T15:16:54.387840Z","epoch_age_seconds":138080,"freshness":"FRESH","line1":"1 63792U 25091T   26263.63674060  .00009734  00000+0  36270-3 0  9998","line2":"2 63792  43.0002  31.8402 0001797 275.4611  84.6036 15.27586130 78714","mean_motion":15.2758613,"eccentricity":0.0001797,"inclination_deg":43.0002,"raan_deg":31.8402,"arg_perigee_deg":275.4611,"mean_anomaly_deg":84.6036,"bstar":0.0003627,"rev_number":7871,"period_min":94.266370433725,"perigee_km":481.79778883278,"apogee_km":484.26369251878,"semimajor_km":6861.1677406758,"source":"CELESTRAK","updated_at":"2026-09-21T09:00:35.101303Z"}}}